TELSTAR 11N

Last updated on Fri Dec 19 2025 00:02:49 GMT+0000 (Coordinated Universal Time)

1 34111U 09009A 25352.40383247 -.00000226 00000+0 00000+0 0 9995 2 34111 0.0180 12.8388 0002251 245.0938 297.1713 1.00271400 44432
UTC large
Height (km)
Speed (km/s)
/
Latitude / Longitude
Inclination (degrees)
Orbital Period (minutes)
Azimuth
Elevation
Range (km)
Doppler Factor

Next 0 passes for location: London (51.5072 / 0.1276)

Sorry there are no passes over London.